Weather History for Elizabethton, TN

Change the Weather History Date:

Monday, August 18, 2014

  Actual Average (KTRI) Record (KTRI)
Temperature  
Mean Temperature 70 °F 74 °F  
Max Temperature 75 °F 85 °F 101 °F (1988)
Min Temperature 66 °F 63 °F 53 °F (1943)
Degree Days  
Heating Degree Days 0 0  
Month to date heating degree days 0  
Since 1 June heating degree days 11  
Since 1 July heating degree days 0  
Cooling Degree Days 6 9  
Month to date cooling degree days 164  
Year to date cooling degree days 742  
Since 1 June cooling degree days 669  
Growing Degree Days 20 (Base 50)    
Moisture  
Dew Point 66 °F    
Average Humidity 88    
Maximum Humidity 100    
Minimum Humidity 69    
Precipitation  
Precipitation 0.00 in 0.11 in 1.07 in (2005)
Month to date precipitation 2.16  
Year to date precipitation 28.14  
Snow  
Snow 0.00 in 0.00 in - ()
Month to date snowfall 0.0  
Since 1 June snowfall 0.0  
Since 1 July snowfall 0.0  
Snow Depth -    
Sea Level Pressure  
Sea Level Pressure 29.94 in    
Wind  
Wind Speed 3 mph (West)    
Max Wind Speed 12 mph    
Max Gust Speed -    
Visibility 9 miles    
Events Rain    
T = Trace of Precipitation, MM = Missing Value Source: NWS Daily Summary

Daily Weather History Graph

Daily Weather History Graph

Search for Another Location

Airport:

Trip Planner

Search our weather history database for the weather conditions in past years. The results will help you decide how hot, cold, wet, or windy it might be!

Date:

Astronomy

Aug. 18, 2014 Rise Set
Actual Time 6:48 AM EDT 8:15 PM EDT
Civil Twilight 6:21 AM EDT 8:42 PM EDT
Nautical Twilight 5:49 AM EDT 9:15 PM EDT
Astronomical Twilight 5:15 AM EDT 9:49 PM EDT
Moon 12:57 AM EDT (8/18) 3:14 PM EDT (8/18)
Length of Visible Light 14h 20m
Length of Day
13h 26m
Last Quarter, 38% of the Moon is Illuminated
Aug 18
Last Quarter
Aug 25
New
Sep 2
First Quarter
Sep 8
Full
Sep 15
Last Quarter

Hourly Weather History & Observations

Time (EDT) Temp. Dew Point Humidity Pressure Visibility Wind Dir Wind Speed Gust Speed Precip Events Conditions
12:15 AM 69.8 °F 64.4 °F 83% 30.02 in 10.0 mi Variable 3.5 mph - N/A Rain Light Rain
12:35 AM 68.0 °F 64.4 °F 88% 30.02 in 10.0 mi Calm Calm - N/A   Scattered Clouds
12:55 AM 68.0 °F 66.2 °F 94% 30.01 in 8.0 mi Calm Calm - N/A Rain Light Rain
1:15 AM 66.2 °F 66.2 °F 100% 30.00 in 10.0 mi Calm Calm - N/A   Mostly Cloudy
1:35 AM 68.0 °F 64.4 °F 88% 30.00 in 10.0 mi NE 5.8 mph - N/A   Mostly Cloudy
1:55 AM 66.2 °F 64.4 °F 94% 30.00 in 10.0 mi ENE 5.8 mph - N/A   Overcast
2:15 AM 68.0 °F 64.4 °F 88% 29.99 in 10.0 mi NE 4.6 mph - N/A   Light Drizzle
2:35 AM 68.0 °F 64.4 °F 88% 29.99 in 10.0 mi Calm Calm - N/A   Overcast
2:55 AM 68.0 °F 66.2 °F 94% 29.99 in 10.0 mi Calm Calm - N/A   Light Drizzle
3:15 AM 68.0 °F 66.2 °F 94% 29.98 in 10.0 mi ENE 3.5 mph - N/A Rain Light Rain
3:35 AM 66.2 °F 66.2 °F 100% 29.98 in 5.0 mi Calm Calm - N/A Rain Light Rain
3:55 AM 66.2 °F 66.2 °F 100% 29.98 in 4.0 mi Calm Calm - N/A Rain Rain
4:15 AM 66.2 °F 66.2 °F 100% 29.97 in 3.0 mi Calm Calm - N/A Rain Light Rain
4:35 AM 66.2 °F 66.2 °F 100% 29.96 in 6.0 mi NE 3.5 mph - N/A   Mostly Cloudy
4:55 AM 66.2 °F 66.2 °F 100% 29.96 in 6.0 mi ESE 4.6 mph - N/A   Mostly Cloudy
5:15 AM 66.2 °F 66.2 °F 100% 29.96 in 6.0 mi East 5.8 mph - N/A   Overcast
5:35 AM 66.2 °F 66.2 °F 100% 29.96 in 6.0 mi East 3.5 mph - N/A Rain Heavy Rain
5:55 AM 66.2 °F 66.2 °F 100% 29.96 in 6.0 mi ENE 4.6 mph - N/A Rain Light Rain
6:15 AM 66.2 °F 66.2 °F 100% 29.95 in 6.0 mi ENE 4.6 mph - N/A   Overcast
6:35 AM 66.2 °F 66.2 °F 100% 29.95 in 7.0 mi East 6.9 mph - N/A   Overcast
6:55 AM 66.2 °F 66.2 °F 100% 29.95 in 7.0 mi NE 3.5 mph - N/A   Overcast
7:15 AM 66.2 °F 66.2 °F 100% 29.95 in 6.0 mi ENE 4.6 mph - N/A Rain Light Rain
7:35 AM 66.2 °F 66.2 °F 100% 29.97 in 2.5 mi Calm Calm - N/A Rain Rain
7:55 AM 66.2 °F 66.2 °F 100% 29.96 in 7.0 mi Calm Calm - N/A   Overcast
8:15 AM 66.2 °F 66.2 °F 100% 29.96 in 6.0 mi Calm Calm - N/A   Overcast
8:35 AM 66.2 °F 66.2 °F 100% 29.96 in 7.0 mi Calm Calm - N/A   Mostly Cloudy
8:55 AM 66.2 °F 66.2 °F 100% 29.95 in 6.0 mi ESE 3.5 mph - N/A   Overcast
9:15 AM 68.0 °F 66.2 °F 94% 29.94 in 7.0 mi East 4.6 mph - N/A   Overcast
9:35 AM 69.8 °F 68.0 °F 94% 29.94 in 8.0 mi Calm Calm - N/A   Overcast
9:55 AM 69.8 °F 68.0 °F 94% 29.95 in 9.0 mi Calm Calm - N/A   Overcast
10:15 AM 69.8 °F 68.0 °F 94% 29.95 in 7.0 mi Calm Calm - N/A   Overcast
10:35 AM 69.8 °F 68.0 °F 94% 29.96 in 9.0 mi Calm Calm - N/A   Overcast
10:55 AM 71.6 °F 68.0 °F 88% 29.95 in 10.0 mi WSW 4.6 mph - N/A   Overcast
11:15 AM 71.6 °F 68.0 °F 88% 29.96 in 10.0 mi West 8.1 mph - N/A   Overcast
11:35 AM 73.4 °F 68.0 °F 83% 29.96 in 10.0 mi WSW 8.1 mph - N/A   Overcast
11:55 AM 73.4 °F 68.0 °F 83% 29.95 in 10.0 mi West 6.9 mph - N/A   Overcast
12:15 PM 71.6 °F 66.2 °F 83% 29.95 in 4.0 mi WSW 10.4 mph - N/A Rain Rain
12:35 PM 69.8 °F 66.2 °F 88% 29.95 in 10.0 mi West 10.4 mph - N/A   Overcast
12:55 PM 71.6 °F 66.2 °F 83% 29.95 in 10.0 mi WSW 11.5 mph - N/A   Overcast
1:15 PM 71.6 °F 66.2 °F 83% 29.95 in 10.0 mi West 6.9 mph - N/A   Overcast
1:35 PM 71.6 °F 66.2 °F 83% 29.94 in 10.0 mi WSW 9.2 mph - N/A   Overcast
1:55 PM 71.6 °F 66.2 °F 83% 29.94 in 10.0 mi West 6.9 mph - N/A   Overcast
2:15 PM 71.6 °F 66.2 °F 83% 29.94 in 10.0 mi West 8.1 mph - N/A   Overcast
2:35 PM 73.4 °F 66.2 °F 78% 29.93 in 10.0 mi West 6.9 mph - N/A   Overcast
2:55 PM 73.4 °F 66.2 °F 78% 29.92 in 10.0 mi Variable 5.8 mph - N/A   Light Drizzle
3:15 PM 71.6 °F 64.4 °F 78% 29.92 in 8.0 mi West 6.9 mph - N/A Rain Light Rain
3:35 PM 71.6 °F 66.2 °F 83% 29.91 in 8.0 mi West 5.8 mph - N/A Rain Light Rain
3:55 PM 71.6 °F 66.2 °F 83% 29.90 in 10.0 mi WSW 5.8 mph - N/A   Overcast
4:15 PM 73.4 °F 68.0 °F 83% 29.89 in 10.0 mi WSW 4.6 mph - N/A   Mostly Cloudy
4:35 PM 75.2 °F 68.0 °F 78% 29.89 in 10.0 mi Variable 6.9 mph - N/A   Scattered Clouds
4:55 PM 75.2 °F 66.2 °F 73% 29.89 in 10.0 mi West 6.9 mph - N/A   Mostly Cloudy
5:15 PM 75.2 °F 66.2 °F 73% 29.89 in 10.0 mi West 9.2 mph - N/A   Overcast
5:35 PM 75.2 °F 66.2 °F 73% 29.88 in 10.0 mi WSW 6.9 mph - N/A   Mostly Cloudy
5:55 PM 75.2 °F 64.4 °F 69% 29.88 in 10.0 mi WSW 10.4 mph - N/A   Mostly Cloudy
6:15 PM 75.2 °F 64.4 °F 69% 29.88 in 10.0 mi WSW 9.2 mph - N/A   Partly Cloudy
6:35 PM 75.2 °F 64.4 °F 69% 29.88 in 10.0 mi West 9.2 mph - N/A   Clear
7:15 PM 75.2 °F 66.2 °F 73% 29.88 in 10.0 mi WSW 4.6 mph - N/A   Scattered Clouds
7:35 PM 75.2 °F 66.2 °F 73% 29.89 in 10.0 mi WSW 3.5 mph - N/A   Overcast
7:55 PM 73.4 °F 66.2 °F 78% 29.89 in 10.0 mi West 5.8 mph - N/A   Overcast
8:15 PM 73.4 °F 66.2 °F 78% 29.90 in 10.0 mi West 5.8 mph - N/A   Overcast
8:35 PM 73.4 °F 66.2 °F 78% 29.90 in 10.0 mi WNW 3.5 mph - N/A   Overcast
8:55 PM 71.6 °F 66.2 °F 83% 29.91 in 10.0 mi NW 3.5 mph - N/A   Overcast
9:15 PM 69.8 °F 66.2 °F 88% 29.91 in 10.0 mi NW 3.5 mph - N/A   Overcast
9:35 PM 69.8 °F 66.2 °F 88% 29.91 in 10.0 mi Calm Calm - N/A   Overcast
9:55 PM 69.8 °F 66.2 °F 88% 29.91 in 10.0 mi Calm Calm - N/A   Overcast
10:15 PM 68.0 °F 66.2 °F 94% 29.91 in 10.0 mi Calm Calm - N/A   Mostly Cloudy
10:35 PM 68.0 °F 66.2 °F 94% 29.90 in 10.0 mi Calm Calm - N/A   Mostly Cloudy
10:55 PM 68.0 °F 66.2 °F 94% 29.90 in 10.0 mi Calm Calm - N/A   Overcast
11:15 PM 68.0 °F 66.2 °F 94% 29.91 in 10.0 mi Calm Calm - N/A   Overcast
11:35 PM 68.0 °F 66.2 °F 94% 29.91 in 10.0 mi Calm Calm - N/A   Mostly Cloudy